QPF
0.03 0.01 0.00 0.01 0.01 0.02 0.02 0.01 0.01 0.02 0.03 0.03 0.03 0.04 0.03 0.02 0.02 0.01 0.01 0.03 0.03 0.04 0.05 0.04 0.03 0.03 0.05 0.04 0.06 0.11 0.13 0.10 0.07 0.07 0.05 0.03 0.04 0.04 0.04 0.04 0.05 0.05 0.01
0.02 0.01 0.00 0.01 0.02 0.02 0.02 0.01 0.01 0.02 0.03 0.04 0.04 0.05 0.04 0.02 0.03 0.03 0.02 0.04 0.03 0.04 0.04 0.04 0.04 0.04 0.05 0.06 0.05 0.09 0.13 0.11 0.07 0.06 0.05 0.05 0.05 0.05 0.05 0.06 0.06 0.05 0.02
0.03 0.01 0.00 0.01 0.02 0.02 0.02 0.01 0.01 0.02 0.03 0.04 0.04 0.05 0.04 0.03 0.03 0.03 0.03 0.05 0.04 0.04 0.04 0.04 0.04 0.05 0.05 0.05 0.05 0.07 0.12 0.10 0.07 0.07 0.10 0.11 0.08 0.06 0.07 0.05 0.04 0.03 0.02
0.04 0.02 0.01 0.01 0.03 0.03 0.02 0.02 0.02 0.02 0.03 0.04 0.05 0.04 0.04 0.03 0.03 0.04 0.05 0.06 0.05 0.04 0.04 0.04 0.04 0.04 0.04 0.04 0.04 0.05 0.12 0.11 0.10 0.09 0.14 0.14 0.09 0.06 0.06 0.05 0.04 0.03 0.03
0.03 0.02 0.02 0.02 0.03 0.03 0.03 0.02 0.03 0.03 0.03 0.04 0.05 0.04 0.05 0.05 0.05 0.06 0.08 0.07 0.06 0.04 0.05 0.04 0.03 0.04 0.04 0.04 0.04 0.06 0.12 0.13 0.11 0.11 0.14 0.14 0.11 0.07 0.06 0.05 0.04 0.04 0.03
0.03 0.01 0.01 0.03 0.02 0.03 0.04 0.04 0.03 0.03 0.03 0.04 0.04 0.04 0.04 0.05 0.06 0.07 0.09 0.08 0.05 0.03 0.04 0.04 0.03 0.03 0.04 0.04 0.04 0.05 0.09 0.12 0.11 0.11 0.14 0.14 0.10 0.07 0.07 0.06 0.05 0.04 0.03
0.03 0.02 0.00 0.01 0.02 0.04 0.07 0.10 0.09 0.05 0.05 0.05 0.06 0.06 0.05 0.05 0.07 0.08 0.08 0.07 0.04 0.03 0.04 0.04 0.04 0.03 0.04 0.06 0.05 0.05 0.09 0.15 0.11 0.11 0.14 0.14 0.12 0.11 0.09 0.08 0.06 0.04 0.03
0.02 0.01 0.00 0.01 0.02 0.04 0.08 0.08 0.06 0.03 0.03 0.03 0.04 0.05 0.06 0.05 0.06 0.07 0.06 0.04 0.03 0.05 0.07 0.08 0.07 0.06 0.07 0.08 0.06 0.08 0.12 0.15 0.11 0.12 0.13 0.16 0.15 0.14 0.11 0.11 0.07 0.04 0.03
0.01 0.01 0.01 0.01 0.02 0.04 0.07 0.05 0.04 0.02 0.02 0.01 0.02 0.03 0.04 0.05 0.04 0.03 0.04 0.04 0.06 0.12 0.19 0.19 0.14 0.12 0.12 0.12 0.10 0.12 0.16 0.14 0.12 0.13 0.12 0.12 0.13 0.11 0.11 0.18 0.09 0.04 0.04
0.00 0.01 0.02 0.03 0.03 0.04 0.06 0.04 0.03 0.01 0.01 0.01 0.01 0.02 0.03 0.05 0.04 0.04 0.04 0.04 0.06 0.15 0.27 0.29 0.24 0.18 0.15 0.14 0.14 0.15 0.15 0.13 0.14 0.15 0.14 0.12 0.10 0.11 0.11 0.13 0.07 0.05 0.04
0.02 0.02 0.02 0.03 0.03 0.03 0.03 0.03 0.03 0.02 0.03 0.04 0.03 0.03 0.05 0.09 0.08 0.08 0.05 0.04 0.04 0.08 0.14 0.18 0.18 0.16 0.14 0.14 0.16 0.18 0.17 0.15 0.17 0.16 0.13 0.11 0.08 0.10 0.11 0.07 0.07 0.05 0.04
0.02 0.03 0.03 0.04 0.04 0.03 0.03 0.03 0.04 0.04 0.05 0.06 0.07 0.06 0.09 0.11 0.11 0.08 0.05 0.03 0.03 0.07 0.09 0.11 0.13 0.12 0.13 0.16 0.20 0.19 0.16 0.16 0.16 0.12 0.09 0.07 0.05 0.07 0.10 0.05 0.07 0.05 0.06
0.03 0.02 0.04 0.04 0.04 0.03 0.04 0.04 0.05 0.05 0.05 0.06 0.07 0.08 0.10 0.09 0.08 0.07 0.08 0.07 0.06 0.07 0.09 0.12 0.12 0.13 0.14 0.17 0.19 0.14 0.13 0.13 0.11 0.06 0.04 0.04 0.05 0.04 0.05 0.04 0.04 0.06 0.10
0.03 0.03 0.02 0.02 0.02 0.03 0.03 0.05 0.05 0.06 0.06 0.08 0.09 0.09 0.06 0.04 0.04 0.05 0.08 0.06 0.06 0.07 0.10 0.11 0.11 0.12 0.13 0.13 0.14 0.12 0.10 0.08 0.05 0.03 0.04 0.04 0.04 0.03 0.03 0.04 0.06 0.10 0.11
0.03 0.04 0.02 0.01 0.02 0.03 0.04 0.06 0.06 0.07 0.06 0.05 0.05 0.04 0.03 0.03 0.02 0.03 0.04 0.05 0.09 0.11 0.10 0.10 0.12 0.12 0.11 0.12 0.14 0.12 0.08 0.05 0.03 0.02 0.02 0.04 0.05 0.03 0.03 0.03 0.04 0.06 0.07
0.03 0.04 0.03 0.02 0.03 0.03 0.05 0.06 0.07 0.06 0.06 0.04 0.03 0.03 0.02 0.02 0.02 0.03 0.04 0.08 0.12 0.11 0.11 0.11 0.13 0.12 0.11 0.13 0.16 0.13 0.08 0.07 0.05 0.03 0.03 0.04 0.04 0.02 0.02 0.03 0.04 0.04 0.04
0.01 0.01 0.02 0.01 0.02 0.04 0.05 0.06 0.06 0.05 0.04 0.03 0.03 0.02 0.02 0.02 0.02 0.03 0.04 0.07 0.08 0.08 0.10 0.11 0.12 0.13 0.13 0.12 0.12 0.11 0.09 0.07 0.07 0.06 0.04 0.04 0.03 0.02 0.02 0.02 0.03 0.03 0.03
0.01 0.01 0.01 0.02 0.03 0.03 0.05 0.05 0.04 0.03 0.02 0.02 0.02 0.02 0.02 0.01 0.01 0.03 0.03 0.04 0.05 0.07 0.09 0.09 0.10 0.10 0.10 0.08 0.08 0.09 0.09 0.07 0.05 0.04 0.04 0.03 0.03 0.03 0.03 0.02 0.02 0.02 0.02
0.01 0.02 0.02 0.02 0.03 0.03 0.03 0.04 0.03 0.02 0.01 0.01 0.01 0.01 0.02 0.02 0.02 0.02 0.03 0.03 0.03 0.05 0.06 0.05 0.06 0.06 0.06 0.06 0.06 0.07 0.08 0.06 0.05 0.05 0.04 0.03 0.03 0.03 0.05 0.04 0.03 0.02 0.02
0.01 0.03 0.03 0.03 0.04 0.04 0.03 0.03 0.03 0.02 0.01 0.01 0.01 0.02 0.02 0.02 0.02 0.02 0.02 0.02 0.03 0.03 0.03 0.03 0.03 0.03 0.03 0.05 0.04 0.05 0.06 0.05 0.06 0.06 0.05 0.03 0.04 0.03 0.03 0.03 0.04 0.02 0.02
0.03 0.04 0.03 0.04 0.05 0.05 0.04 0.03 0.03 0.02 0.01 0.01 0.01 0.02 0.02 0.02 0.03 0.03 0.03 0.03 0.03 0.03 0.03 0.02 0.02 0.02 0.02 0.03 0.04 0.05 0.05 0.04 0.04 0.04 0.04 0.04 0.05 0.03 0.04 0.04 0.04 0.03 0.03
0.03 0.03 0.03 0.04 0.04 0.04 0.04 0.03 0.03 0.04 0.03 0.02 0.02 0.03 0.03 0.03 0.04 0.03 0.04 0.04 0.03 0.04 0.03 0.03 0.03 0.03 0.03 0.03 0.04 0.06 0.07 0.07 0.05 0.05 0.05 0.04 0.05 0.04 0.05 0.04 0.05 0.04 0.03
0.02 0.03 0.03 0.04 0.05 0.04 0.05 0.04 0.05 0.05 0.05 0.04 0.04 0.05 0.05 0.04 0.04 0.04 0.03 0.03 0.05 0.03 0.04 0.05 0.04 0.04 0.04 0.04 0.04 0.06 0.09 0.10 0.09 0.08 0.06 0.06 0.06 0.06 0.05 0.04 0.04 0.04 0.05
0.00 0.01 0.02 0.04 0.06 0.05 0.05 0.05 0.06 0.05 0.05 0.06 0.05 0.04 0.05 0.05 0.04 0.04 0.05 0.05 0.06 0.05 0.06 0.04 0.04 0.05 0.05 0.04 0.04 0.05 0.06 0.07 0.08 0.08 0.06 0.06 0.04 0.04 0.04 0.03 0.03 0.03 0.05
0.01 0.01 0.02 0.04 0.05 0.04 0.05 0.05 0.07 0.06 0.06 0.06 0.05 0.05 0.06 0.08 0.08 0.07 0.08 0.08 0.08 0.08 0.08 0.07 0.07 0.07 0.05 0.04 0.04 0.05 0.08 0.08 0.07 0.07 0.07 0.07 0.05 0.04 0.04 0.04 0.03 0.04 0.04
0.01 0.02 0.02 0.04 0.05 0.05 0.05 0.05 0.05 0.05 0.06 0.06 0.05 0.07 0.07 0.09 0.09 0.09 0.10 0.09 0.08 0.09 0.09 0.09 0.08 0.05 0.05 0.05 0.05 0.05 0.06 0.06 0.06 0.07 0.08 0.07 0.05 0.05 0.06 0.05 0.04 0.05 0.06
MSLP
1001.99 1001.68 1001.60 1001.74 1002.03 1002.40 1002.76 1003.05 1003.25 1003.35 1003.37 1003.36 1003.36 1003.39 1003.48 1003.65 1003.88 1004.17 1004.51 1004.88 1005.27 1005.63 1005.97 1006.25 1006.46 1006.60 1006.68 1006.71 1006.73 1006.75 1006.79 1006.86 1006.96 1007.07 1007.19 1007.31 1007.41 1007.49 1007.55 1007.59 1007.60 1007.57 1007.49
1002.23 1001.85 1001.63 1001.56 1001.63 1001.79 1001.99 1002.21 1002.42 1002.61 1002.81 1003.00 1003.18 1003.37 1003.55 1003.72 1003.91 1004.11 1004.36 1004.65 1004.99 1005.36 1005.74 1006.09 1006.38 1006.58 1006.70 1006.75 1006.76 1006.76 1006.78 1006.85 1006.96 1007.12 1007.29 1007.46 1007.61 1007.73 1007.81 1007.85 1007.85 1007.82 1007.75
1002.25 1001.75 1001.32 1000.99 1000.77 1000.66 1000.66 1000.79 1001.03 1001.38 1001.82 1002.29 1002.77 1003.19 1003.53 1003.78 1003.95 1004.08 1004.22 1004.42 1004.69 1005.05 1005.46 1005.89 1006.27 1006.57 1006.76 1006.85 1006.88 1006.88 1006.90 1006.97 1007.10 1007.28 1007.50 1007.72 1007.90 1008.05 1008.14 1008.19 1008.19 1008.17 1008.11
1002.00 1001.32 1000.64 1000.00 999.44 999.03 998.82 998.84 999.12 999.65 1000.38 1001.21 1002.04 1002.78 1003.35 1003.73 1003.93 1004.02 1004.08 1004.19 1004.41 1004.75 1005.20 1005.70 1006.18 1006.58 1006.87 1007.03 1007.09 1007.12 1007.14 1007.22 1007.37 1007.58 1007.82 1008.07 1008.29 1008.45 1008.55 1008.60 1008.60 1008.58 1008.54
1001.53 1000.67 999.72 998.74 997.84 997.11 996.67 996.58 996.90 997.61 998.64 999.84 1001.06 1002.14 1002.99 1003.55 1003.84 1003.93 1003.95 1004.00 1004.18 1004.52 1005.01 1005.58 1006.15 1006.66 1007.03 1007.26 1007.38 1007.44 1007.49 1007.58 1007.75 1007.98 1008.25 1008.52 1008.75 1008.92 1009.01 1009.06 1009.06 1009.04 1009.02
1001.02 999.98 998.78 997.50 996.28 995.26 994.58 994.39 994.72 995.58 996.86 998.39 999.96 1001.39 1002.52 1003.28 1003.69 1003.84 1003.87 1003.91 1004.08 1004.43 1004.94 1005.57 1006.22 1006.80 1007.25 1007.54 1007.71 1007.80 1007.88 1008.00 1008.19 1008.45 1008.74 1009.02 1009.26 1009.42 1009.51 1009.54 1009.53 1009.52 1009.51
1000.66 999.49 998.11 996.60 995.13 993.86 993.00 992.69 993.00 993.94 995.40 997.17 999.01 1000.70 1002.06 1003.02 1003.56 1003.80 1003.87 1003.94 1004.13 1004.49 1005.04 1005.70 1006.39 1007.01 1007.50 1007.83 1008.04 1008.16 1008.27 1008.43 1008.65 1008.94 1009.25 1009.55 1009.79 1009.94 1010.01 1010.02 1010.00 1009.98 1009.98
1000.62 999.42 997.97 996.35 994.73 993.31 992.30 991.88 992.14 993.08 994.60 996.47 998.45 1000.29 1001.79 1002.87 1003.54 1003.86 1004.00 1004.12 1004.35 1004.74 1005.30 1005.97 1006.66 1007.28 1007.77 1008.11 1008.33 1008.48 1008.63 1008.82 1009.09 1009.42 1009.77 1010.08 1010.32 1010.47 1010.52 1010.50 1010.46 1010.42 1010.43
1001.04 999.92 998.52 996.92 995.28 993.81 992.72 992.21 992.39 993.24 994.69 996.52 998.47 1000.30 1001.83 1002.96 1003.67 1004.07 1004.28 1004.46 1004.72 1005.14 1005.70 1006.36 1007.01 1007.59 1008.05 1008.36 1008.57 1008.74 1008.93 1009.18 1009.50 1009.88 1010.27 1010.61 1010.86 1010.99 1011.02 1010.97 1010.90 1010.85 1010.84
1001.90 1000.95 999.72 998.26 996.72 995.31 994.22 993.66 993.72 994.43 995.70 997.34 999.11 1000.80 1002.23 1003.29 1004.00 1004.42 1004.68 1004.91 1005.22 1005.66 1006.21 1006.82 1007.42 1007.93 1008.32 1008.60 1008.80 1008.98 1009.20 1009.51 1009.90 1010.34 1010.77 1011.14 1011.40 1011.53 1011.53 1011.46 1011.35 1011.27 1011.25
1003.07 1002.37 1001.40 1000.18 998.85 997.57 996.56 995.97 995.92 996.44 997.46 998.81 1000.30 1001.72 1002.93 1003.86 1004.48 1004.89 1005.17 1005.44 1005.79 1006.23 1006.77 1007.33 1007.86 1008.29 1008.61 1008.84 1009.02 1009.22 1009.49 1009.85 1010.30 1010.80 1011.29 1011.68 1011.95 1012.07 1012.06 1011.96 1011.82 1011.71 1011.67
1004.37 1003.96 1003.28 1002.35 1001.29 1000.22 999.33 998.76 998.63 998.95 999.68 1000.70 1001.83 1002.92 1003.86 1004.57 1005.08 1005.43 1005.71 1006.01 1006.38 1006.84 1007.35 1007.86 1008.32 1008.68 1008.94 1009.13 1009.30 1009.51 1009.82 1010.23 1010.74 1011.29 1011.81 1012.23 1012.50 1012.62 1012.59 1012.47 1012.32 1012.19 1012.12
1005.61 1005.45 1005.06 1004.43 1003.65 1002.82 1002.09 1001.59 1001.40 1001.56 1002.02 1002.71 1003.48 1004.23 1004.87 1005.36 1005.72 1006.00 1006.27 1006.58 1006.97 1007.44 1007.93 1008.41 1008.81 1009.12 1009.33 1009.49 1009.66 1009.89 1010.23 1010.69 1011.23 1011.80 1012.33 1012.76 1013.03 1013.14 1013.11 1012.99 1012.83 1012.70 1012.63
1006.63 1006.67 1006.51 1006.14 1005.61 1005.02 1004.47 1004.06 1003.86 1003.90 1004.16 1004.57 1005.03 1005.48 1005.85 1006.15 1006.38 1006.59 1006.84 1007.16 1007.57 1008.04 1008.52 1008.97 1009.34 1009.61 1009.80 1009.96 1010.13 1010.38 1010.74 1011.21 1011.75 1012.32 1012.84 1013.24 1013.49 1013.60 1013.57 1013.47 1013.34 1013.22 1013.16
1007.36 1007.52 1007.51 1007.32 1007.00 1006.61 1006.23 1005.94 1005.78 1005.77 1005.90 1006.11 1006.35 1006.57 1006.75 1006.90 1007.03 1007.19 1007.44 1007.77 1008.19 1008.66 1009.14 1009.57 1009.92 1010.18 1010.37 1010.53 1010.71 1010.97 1011.33 1011.79 1012.30 1012.82 1013.28 1013.64 1013.86 1013.95 1013.94 1013.87 1013.78 1013.72 1013.70
1007.83 1008.01 1008.07 1007.99 1007.81 1007.57 1007.34 1007.17 1007.08 1007.08 1007.16 1007.27 1007.39 1007.49 1007.56 1007.62 1007.70 1007.85 1008.09 1008.43 1008.86 1009.33 1009.80 1010.22 1010.57 1010.82 1011.02 1011.19 1011.39 1011.65 1011.98 1012.39 1012.84 1013.27 1013.65 1013.93 1014.10 1014.18 1014.18 1014.16 1014.14 1014.16 1014.21
1008.14 1008.29 1008.34 1008.30 1008.20 1008.07 1007.96 1007.89 1007.89 1007.94 1008.04 1008.14 1008.22 1008.27 1008.31 1008.34 1008.42 1008.57 1008.82 1009.17 1009.60 1010.06 1010.52 1010.92 1011.26 1011.52 1011.72 1011.91 1012.11 1012.36 1012.66 1013.00 1013.35 1013.68 1013.94 1014.13 1014.24 1014.28 1014.31 1014.34 1014.40 1014.51 1014.65
1008.41 1008.50 1008.52 1008.47 1008.40 1008.33 1008.30 1008.33 1008.41 1008.54 1008.69 1008.82 1008.92 1009.00 1009.05 1009.11 1009.21 1009.38 1009.64 1009.99 1010.40 1010.84 1011.27 1011.65 1011.98 1012.24 1012.45 1012.64 1012.84 1013.07 1013.32 1013.58 1013.83 1014.04 1014.18 1014.26 1014.30 1014.31 1014.34 1014.42 1014.56 1014.76 1014.99
1008.73 1008.78 1008.75 1008.69 1008.63 1008.60 1008.62 1008.72 1008.87 1009.06 1009.26 1009.45 1009.60 1009.72 1009.81 1009.91 1010.04 1010.24 1010.51 1010.84 1011.23 1011.63 1012.02 1012.37 1012.67 1012.92 1013.13 1013.33 1013.53 1013.73 1013.93 1014.12 1014.27 1014.37 1014.40 1014.39 1014.35 1014.32 1014.35 1014.46 1014.65 1014.92 1015.23
1009.14 1009.17 1009.14 1009.08 1009.02 1009.02 1009.08 1009.21 1009.40 1009.64 1009.88 1010.11 1010.30 1010.46 1010.60 1010.73 1010.90 1011.10 1011.37 1011.68 1012.02 1012.37 1012.71 1013.02 1013.28 1013.51 1013.72 1013.92 1014.11 1014.30 1014.47 1014.61 1014.68 1014.69 1014.64 1014.54 1014.44 1014.37 1014.38 1014.49 1014.71 1015.02 1015.37
1009.61 1009.67 1009.67 1009.64 1009.61 1009.63 1009.71 1009.86 1010.07 1010.31 1010.57 1010.81 1011.02 1011.20 1011.36 1011.52 1011.69 1011.90 1012.14 1012.42 1012.72 1013.01 1013.29 1013.54 1013.77 1013.97 1014.17 1014.37 1014.56 1014.75 1014.91 1015.01 1015.06 1015.02 1014.91 1014.76 1014.61 1014.50 1014.47 1014.56 1014.76 1015.06 1015.42
1010.04 1010.19 1010.27 1010.30 1010.32 1010.37 1010.47 1010.63 1010.83 1011.05 1011.29 1011.51 1011.71 1011.88 1012.04 1012.19 1012.37 1012.56 1012.78 1013.02 1013.27 1013.50 1013.72 1013.92 1014.10 1014.28 1014.46 1014.65 1014.85 1015.05 1015.22 1015.33 1015.37 1015.33 1015.21 1015.04 1014.86 1014.71 1014.63 1014.66 1014.81 1015.05 1015.37
1010.37 1010.63 1010.80 1010.92 1011.02 1011.12 1011.24 1011.40 1011.58 1011.77 1011.97 1012.14 1012.30 1012.45 1012.58 1012.72 1012.88 1013.05 1013.25 1013.45 1013.65 1013.84 1014.01 1014.15 1014.29 1014.43 1014.59 1014.78 1014.99 1015.20 1015.39 1015.54 1015.61 1015.60 1015.50 1015.33 1015.14 1014.95 1014.82 1014.78 1014.83 1014.99 1015.22
1010.51 1010.89 1011.17 1011.39 1011.57 1011.73 1011.89 1012.05 1012.22 1012.38 1012.53 1012.66 1012.77 1012.87 1012.97 1013.09 1013.23 1013.38 1013.55 1013.73 1013.90 1014.05 1014.17 1014.27 1014.37 1014.48 1014.61 1014.78 1014.99 1015.21 1015.44 1015.63 1015.75 1015.78 1015.73 1015.59 1015.40 1015.18 1014.99 1014.86 1014.81 1014.84 1014.96
1010.49 1010.95 1011.34 1011.65 1011.91 1012.14 1012.34 1012.52 1012.68 1012.82 1012.94 1013.03 1013.10 1013.17 1013.24 1013.33 1013.45 1013.59 1013.75 1013.91 1014.06 1014.18 1014.27 1014.34 1014.40 1014.47 1014.57 1014.72 1014.91 1015.14 1015.38 1015.61 1015.78 1015.87 1015.86 1015.76 1015.57 1015.34 1015.09 1014.87 1014.70 1014.61 1014.61
1010.34 1010.86 1011.32 1011.70 1012.03 1012.32 1012.56 1012.78 1012.95 1013.10 1013.20 1013.27 1013.33 1013.37 1013.43 1013.51 1013.62 1013.76 1013.91 1014.06 1014.20 1014.31 1014.38 1014.42 1014.45 1014.48 1014.54 1014.65 1014.82 1015.03 1015.28 1015.52 1015.72 1015.85 1015.89 1015.81 1015.64 1015.39 1015.09 1014.78 1014.50 1014.29 1014.18
Thickness
5812 5807 5801 5798 5795 5792 5789 5787 5785 5783 5782 5780 5778 5777 5776 5775 5775 5774 5774 5774 5773 5772 5771 5771 5770 5769 5769 5768 5767 5767 5766 5765 5765 5764 5764 5763 5762 5761 5760 5759 5759 5758 5757
5815 5807 5800 5797 5793 5791 5788 5786 5784 5782 5781 5779 5778 5776 5775 5774 5774 5773 5772 5772 5771 5771 5770 5770 5769 5768 5768 5767 5766 5765 5765 5764 5763 5763 5763 5761 5760 5759 5759 5758 5758 5756 5755
5815 5806 5800 5795 5792 5790 5787 5785 5783 5781 5780 5778 5777 5775 5774 5773 5773 5772 5771 5771 5770 5770 5769 5769 5768 5767 5767 5766 5765 5764 5764 5763 5762 5762 5761 5760 5759 5758 5757 5756 5755 5754 5753
5816 5807 5800 5795 5791 5789 5786 5784 5782 5780 5779 5778 5776 5774 5773 5772 5772 5771 5770 5770 5769 5769 5768 5767 5767 5766 5765 5765 5764 5763 5763 5762 5761 5760 5761 5760 5759 5757 5755 5754 5753 5752 5751
5816 5806 5798 5794 5791 5788 5785 5783 5781 5780 5778 5776 5775 5773 5772 5771 5770 5769 5768 5768 5768 5768 5767 5766 5765 5765 5764 5764 5763 5763 5762 5762 5761 5760 5760 5759 5756 5755 5754 5752 5751 5750 5749
5816 5806 5798 5793 5790 5788 5785 5783 5781 5779 5777 5775 5774 5772 5771 5770 5769 5768 5768 5767 5767 5767 5766 5765 5764 5764 5763 5763 5762 5762 5762 5761 5761 5761 5760 5758 5756 5753 5752 5751 5749 5748 5747
5815 5807 5798 5793 5790 5788 5785 5783 5780 5778 5776 5774 5773 5771 5770 5769 5768 5767 5766 5766 5766 5766 5765 5764 5764 5763 5762 5762 5762 5762 5761 5761 5761 5761 5760 5757 5755 5752 5751 5749 5748 5746 5745
5816 5807 5798 5793 5790 5787 5786 5785 5780 5777 5775 5773 5771 5770 5769 5768 5767 5766 5766 5765 5765 5765 5765 5764 5763 5763 5762 5761 5761 5761 5761 5760 5761 5760 5759 5756 5754 5752 5749 5748 5746 5745 5743
5817 5808 5801 5795 5790 5787 5785 5782 5779 5776 5774 5772 5771 5769 5768 5767 5766 5765 5765 5764 5764 5764 5763 5763 5762 5762 5761 5761 5760 5760 5760 5759 5758 5758 5757 5754 5753 5750 5748 5746 5745 5743 5742
5817 5811 5804 5799 5793 5789 5784 5781 5778 5775 5774 5772 5771 5769 5768 5767 5765 5764 5763 5763 5763 5762 5762 5762 5762 5761 5760 5760 5760 5760 5759 5759 5758 5758 5755 5752 5750 5748 5746 5745 5743 5742 5740
5813 5811 5807 5802 5796 5792 5787 5782 5778 5776 5773 5772 5770 5769 5767 5766 5766 5764 5763 5761 5761 5761 5760 5760 5761 5760 5760 5760 5760 5760 5759 5758 5758 5757 5754 5751 5749 5747 5745 5744 5742 5741 5740
5808 5809 5808 5803 5798 5794 5790 5784 5780 5777 5774 5772 5771 5769 5767 5767 5766 5765 5763 5761 5761 5760 5758 5758 5759 5759 5759 5759 5760 5759 5758 5758 5758 5756 5752 5750 5748 5746 5744 5743 5741 5740 5739
5810 5808 5807 5803 5798 5794 5790 5786 5782 5780 5776 5773 5770 5769 5767 5766 5766 5765 5762 5760 5759 5759 5759 5757 5758 5758 5760 5760 5759 5759 5758 5758 5756 5754 5751 5749 5747 5745 5743 5742 5740 5739 5738
5809 5806 5804 5802 5797 5793 5790 5787 5783 5780 5776 5773 5770 5768 5767 5766 5765 5764 5762 5760 5760 5759 5759 5758 5757 5757 5758 5758 5758 5758 5757 5756 5754 5752 5749 5748 5746 5744 5742 5741 5739 5738 5737
5807 5805 5803 5800 5795 5791 5787 5784 5782 5779 5776 5772 5769 5767 5766 5765 5763 5762 5761 5759 5759 5758 5757 5756 5755 5755 5755 5756 5756 5756 5755 5754 5752 5750 5747 5746 5744 5742 5740 5739 5738 5737 5735
5805 5803 5801 5797 5793 5789 5785 5781 5780 5777 5774 5771 5768 5766 5764 5763 5761 5760 5759 5757 5757 5757 5755 5754 5754 5753 5753 5753 5752 5752 5752 5752 5750 5748 5746 5744 5742 5740 5739 5738 5736 5735 5734
5805 5802 5798 5796 5792 5787 5784 5781 5778 5776 5773 5770 5767 5764 5762 5760 5759 5757 5756 5755 5754 5754 5754 5753 5752 5751 5751 5749 5748 5749 5749 5749 5747 5746 5745 5743 5741 5739 5737 5735 5734 5733 5731
5803 5799 5797 5795 5789 5785 5782 5779 5776 5774 5772 5768 5766 5763 5759 5757 5756 5755 5753 5752 5751 5751 5751 5749 5748 5747 5745 5744 5744 5745 5745 5745 5745 5744 5743 5742 5740 5738 5735 5733 5732 5731 5729
5802 5796 5793 5791 5787 5783 5780 5777 5774 5771 5769 5767 5764 5761 5758 5755 5754 5752 5751 5749 5749 5748 5747 5746 5744 5742 5740 5740 5740 5741 5742 5742 5742 5742 5741 5740 5739 5736 5734 5731 5730 5728 5727
5800 5795 5790 5787 5783 5780 5776 5773 5770 5768 5766 5764 5761 5758 5756 5753 5752 5750 5749 5747 5746 5745 5743 5741 5739 5739 5738 5737 5738 5738 5738 5739 5740 5739 5739 5738 5736 5735 5733 5731 5728 5726 5725
5796 5790 5786 5782 5779 5776 5772 5768 5764 5761 5761 5760 5757 5755 5753 5750 5749 5747 5745 5743 5742 5740 5739 5738 5736 5734 5733 5735 5732 5730 5733 5736 5736 5737 5737 5736 5734 5733 5732 5730 5728 5726 5723
5789 5786 5782 5778 5775 5772 5769 5766 5763 5761 5759 5757 5755 5752 5750 5747 5745 5744 5741 5739 5738 5736 5735 5734 5732 5729 5730 5732 5727 5723 5719 5723 5728 5734 5733 5731 5731 5730 5729 5729 5727 5725 5723
5785 5782 5779 5775 5772 5769 5766 5764 5761 5758 5755 5752 5749 5747 5746 5744 5741 5738 5738 5736 5735 5733 5730 5729 5728 5725 5723 5726 5727 5721 5714 5712 5717 5724 5727 5727 5727 5727 5726 5726 5726 5724 5722
5784 5780 5776 5771 5768 5765 5762 5758 5754 5750 5746 5746 5745 5744 5742 5741 5738 5735 5733 5732 5730 5729 5727 5726 5725 5723 5721 5719 5722 5723 5721 5718 5712 5711 5718 5722 5724 5723 5723 5724 5723 5722 5720
5782 5777 5771 5766 5762 5760 5757 5754 5750 5747 5745 5744 5742 5739 5738 5737 5735 5732 5729 5727 5726 5724 5723 5722 5721 5719 5718 5717 5717 5718 5718 5717 5716 5709 5707 5713 5716 5719 5720 5720 5719 5718 5716
5777 5773 5767 5760 5756 5754 5751 5748 5745 5742 5739 5737 5735 5734 5733 5732 5730 5727 5725 5723 5721 5720 5718 5717 5716 5716 5715 5715 5715 5715 5713 5711 5710 5709 5706 5706 5707 5712 5715 5715 5716 5714 5713